Vertical_Velocity
2 0 3 -6 4 1 -1 1 -0 -1 -0 3 3 0 5 0 -1 1 -1 -2 -0 2 1 1 1 3 1 -1 -1 -1 -3 -0 -2 -1 -5 2 0 1 0 1 -1 -2 -1 -1 -1
3 -1 2 -4 4 2 -0 -1 1 -1 3 2 2 1 1 -2 0 -0 1 -2 -1 3 2 2 -0 -0 -1 -0 -0 -3 -1 -4 -2 -2 -1 -1 0 -1 0 1 -1 -1 -1 -0 -1
6 4 -2 -3 3 1 -1 -2 1 1 3 -0 -0 -1 1 -3 0 -1 -2 -2 -3 0 0 0 0 1 -1 -0 -0 -0 -2 -1 -1 -0 1 0 0 0 0 1 -7 -12 -3 -1 -1
-1 1 2 -3 -1 4 -2 -2 0 2 2 1 -2 -4 -0 -3 -7 -1 -2 -2 -1 0 0 -0 -1 -1 -0 -0 -0 -0 0 -0 -0 -0 0 -0 1 0 1 -10 -0 0 1 1 -2
-3 -2 -3 -1 2 -0 -1 -3 -1 3 2 1 -1 -2 -4 -1 -1 1 -2 -1 -0 -1 1 -0 0 -0 -0 -0 0 0 -0 0 0 -0 -0 1 -2 -5 -7 -1 0 0 0 -1 -0
9 1 -5 5 -2 0 -2 -1 -1 2 1 -2 1 -1 -3 -2 -2 -2 -1 -1 -1 -1 -1 -0 -1 0 -1 -0 -0 -1 -0 -1 0 -0 -0 1 -1 1 -4 -1 -0 1 -1 -0 -1
-3 -2 1 2 1 -5 3 0 -3 1 2 0 0 -5 -1 -6 -2 -1 -1 -1 -0 -0 -0 -1 -1 -0 -0 0 0 0 -2 -1 0 0 -1 1 -0 -3 7 1 -1 -2 0 -0 -2
4 -0 8 1 -3 -2 5 1 -4 0 3 -3 -2 -2 -6 0 2 2 2 1 1 1 -1 0 0 -1 -2 0 -1 -1 -3 -2 -1 0 -0 1 -9 -7 -0 1 -3 -2 -1 -2 -3
-0 7 8 -9 -4 -3 1 2 2 0 -2 -2 -3 -0 -5 1 1 -0 -1 0 0 -0 0 1 1 -1 0 -2 -3 -3 -1 0 -6 -0 -0 1 -5 -7 0 1 -3 -2 -2 -3 -1
8 1 -6 -1 -1 1 -0 0 -3 3 1 -2 3 -0 1 -1 0 -1 2 1 -3 2 0 2 -0 -2 -1 -2 -3 -2 -0 -1 -1 -2 1 0 -9 -7 -2 1 -5 -2 -1 -2 -2
-7 3 -6 3 5 -3 2 -0 1 1 0 -2 -0 1 -0 1 -0 0 1 2 2 0 -0 -1 -4 -2 -3 -2 -1 0 1 0 -2 -2 2 -2 -2 -8 -7 3 -1 -4 -3 -4 -8
-3 -0 6 0 2 -1 0 -4 -1 1 -6 -0 2 0 -1 -0 -1 1 1 0 -0 -1 0 -5 -2 -3 -0 -0 0 1 0 -3 -4 0 3 -2 -9 -7 -1 -6 -3 0 -2 -6 -0
0 -1 1 -0 -3 1 -4 -1 -1 1 -1 -1 2 1 -1 -2 -1 0 2 0 -1 1 -0 -3 -6 0 -0 1 1 -0 -1 -1 -0 -1 -0 2 -4 -3 -4 -1 -2 -1 0 -1 -5
2 -3 -2 1 -1 -2 2 3 -0 -3 -7 -8 -1 -1 2 1 -1 0 1 1 0 -2 -0 -2 -2 -0 0 -0 -3 1 -1 0 0 -2 -2 -1 -9 -3 -2 -5 -0 -2 0 3 2
3 2 3 -6 -0 2 -1 -0 -2 -1 -4 -4 -0 1 -0 -1 -1 -0 0 1 -1 -1 -4 -16 0 1 1 -4 -1 -8 0 0 -0 -0 -1 -2 1 -17 -0 -4 -2 -2 -0 0 0
-1 -0 0 3 -0 -2 -0 1 -1 -15 -9 -1 -0 -1 1 1 1 1 0 1 0 0 -0 -3 0 0 -3 0 -0 0 -0 -1 -1 -1 -1 -1 -2 -10 -2 -1 -4 -3 -2 -1 -2
3 0 -3 1 -1 0 -2 -2 -13 -5 -7 0 -1 -0 -0 -0 -1 -0 -0 -0 -3 -2 -2 -3 -1 -0 -0 -0 -1 -3 -3 -3 -5 -2 -3 0 1 -16 -5 -2 -1 -2 -4 0 0
-4 1 -0 -0 0 -0 -1 -10 1 -4 -2 -1 -0 0 -0 -0 -0 -0 -0 -1 1 -2 -1 -1 -10 -1 -0 -2 -2 -0 -4 -3 -0 -1 -3 0 -3 -18 -3 -2 0 1 -0 -1 3
0 -1 0 2 -1 -3 1 -3 -9 -2 -1 0 -0 -0 -1 -0 -0 -1 0 -1 -1 -2 -5 -1 -4 -0 -0 0 -2 0 -1 -3 -1 -0 0 -4 -7 -7 -2 -3 -1 -1 3 1 -0
-1 0 1 -0 2 -0 -6 -4 -1 -1 0 -1 -0 -1 0 -1 -1 -2 -1 -3 -0 -1 0 -1 -4 -0 -0 -0 0 -1 -3 -4 -2 -0 -2 -4 -1 -8 -4 -4 -3 -5 -3 -7 -3
-2 -1 -2 2 2 0 -4 -5 -1 -1 0 -2 -1 0 -1 -0 -1 -0 -3 -4 -0 0 -0 -1 -2 -6 -0 -1 -3 -2 0 -2 -2 -2 0 0 -8 -5 -3 -2 0 -2 -1 -1 -2
-2 -2 2 3 -5 0 -1 -3 1 -1 0 -0 -0 -0 -1 -0 0 1 -2 -1 -0 -1 -0 0 -3 -1 -7 0 -0 -1 -2 -3 -4 -4 -1 1 -20 -2 -2 0 1 -3 -5 0 4
0 0 2 1 -4 -1 -1 -1 -0 1 -1 1 -0 -1 0 -1 -2 -0 -0 0 1 0 -3 -4 -3 -2 -14 -4 -1 1 -0 -1 -1 -1 -5 6 -17 -1 -0 -3 -4 1 -0 -3 -2
-0 -4 1 2 0 -4 -0 -1 -0 0 -0 -0 -0 -1 0 1 -0 -1 -0 0 -0 -0 -0 1 -0 -6 -5 -11 -3 1 1 0 -2 1 -7 -9 -16 -14 -7 0 -5 -8 -0 2 3
0 -2 -2 -3 -2 0 0 -1 0 -0 0 1 1 -0 -3 0 0 -1 0 -1 0 1 1 -3 -1 1 -2 -1 1 -1 -0 -1 1 -10 6 -26 3 -10 -3 2 -2 -3 -2 -0 -4
-1 -2 1 1 1 -0 -0 -2 -1 -2 -1 -1 1 0 -0 -2 -7 -2 -1 0 -5 1 0 0 -4 1 -1 -0 2 1 -1 0 -0 -3 1 3 -11 -0 -7 1 -2 1 -0 -1 -1
1 -0 -1 1 0 -2 -4 -3 -3 -0 0 0 -2 -1 1 -6 0 -1 -1 -1 -1 -4 -1 -1 -0 -0 -7 -0 -0 1 -12 -3 -1 -0 -4 -0 -17 0 -2 -1 -0 -5 4 1 -2
Height
1550 1552 1552 1552 1554 1554 1556 1558 1559 1560 1560 1560 1560 1561 1561 1562 1561 1562 1561 1563 1563 1561 1561 1561 1561 1560 1560 1561 1562 1562 1568 1572 1568 1571 1560 1561 1562 1562 1562 1562 1563 1562 1561 1562 1562
1550 1551 1551 1552 1554 1554 1556 1558 1560 1560 1560 1560 1560 1560 1561 1562 1561 1562 1563 1562 1562 1561 1561 1560 1560 1560 1560 1560 1561 1562 1568 1564 1559 1558 1558 1558 1559 1559 1560 1559 1558 1558 1557 1558 1560
1549 1549 1551 1552 1555 1556 1556 1558 1559 1559 1559 1560 1560 1561 1560 1562 1561 1561 1562 1561 1561 1560 1559 1558 1558 1559 1559 1559 1560 1561 1562 1558 1556 1556 1557 1557 1556 1556 1555 1555 1548 1548 1551 1554 1556
1547 1549 1551 1553 1555 1556 1556 1558 1558 1559 1559 1559 1559 1560 1560 1561 1565 1561 1560 1560 1559 1558 1557 1557 1557 1557 1557 1558 1559 1561 1557 1556 1555 1555 1556 1555 1553 1550 1548 1542 1544 1546 1547 1548 1549
1548 1549 1551 1555 1555 1556 1557 1558 1558 1558 1558 1558 1558 1559 1559 1561 1561 1560 1559 1559 1558 1557 1556 1555 1555 1555 1557 1556 1557 1558 1556 1555 1553 1553 1553 1552 1550 1548 1538 1540 1542 1542 1542 1542 1543
1548 1550 1554 1555 1556 1556 1557 1556 1557 1557 1557 1557 1557 1557 1560 1560 1558 1559 1558 1558 1557 1556 1555 1554 1554 1554 1555 1556 1557 1556 1555 1554 1552 1551 1551 1550 1548 1548 1532 1533 1535 1536 1536 1537 1537
1549 1552 1553 1554 1554 1556 1556 1555 1556 1556 1556 1556 1556 1557 1558 1558 1557 1556 1557 1557 1556 1556 1555 1554 1553 1554 1555 1556 1556 1555 1555 1552 1549 1549 1549 1548 1546 1539 1528 1530 1530 1530 1530 1531 1531
1549 1551 1552 1553 1554 1555 1555 1554 1555 1555 1554 1555 1555 1556 1555 1554 1554 1554 1555 1555 1555 1555 1555 1554 1553 1553 1555 1557 1556 1557 1557 1557 1547 1549 1548 1550 1535 1524 1524 1524 1522 1524 1524 1524 1523
1550 1551 1551 1552 1553 1553 1554 1553 1553 1553 1553 1554 1555 1554 1554 1552 1552 1552 1553 1554 1554 1553 1554 1554 1553 1553 1556 1558 1561 1562 1559 1560 1551 1547 1548 1550 1534 1522 1521 1519 1516 1515 1515 1515 1516
1549 1549 1550 1550 1551 1551 1552 1551 1552 1552 1552 1552 1554 1555 1551 1552 1551 1551 1551 1551 1552 1553 1554 1553 1552 1554 1557 1559 1566 1560 1560 1557 1556 1547 1548 1548 1535 1518 1517 1517 1511 1508 1507 1506 1506
1548 1549 1549 1549 1548 1550 1551 1550 1553 1552 1549 1549 1550 1547 1549 1549 1550 1549 1548 1549 1549 1551 1553 1552 1555 1557 1551 1554 1554 1555 1558 1557 1549 1543 1546 1539 1531 1514 1502 1507 1501 1495 1494 1495 1495
1548 1548 1548 1547 1547 1549 1548 1547 1551 1550 1547 1545 1547 1545 1546 1548 1548 1547 1548 1549 1547 1551 1551 1555 1556 1547 1547 1549 1553 1555 1556 1552 1545 1543 1545 1535 1524 1504 1494 1492 1487 1483 1483 1482 1486
1546 1546 1546 1546 1547 1548 1548 1549 1549 1548 1547 1543 1545 1542 1544 1546 1546 1545 1546 1545 1546 1549 1550 1554 1546 1545 1544 1547 1550 1552 1553 1550 1548 1543 1542 1539 1518 1504 1489 1485 1480 1477 1474 1474 1475
1546 1545 1546 1546 1549 1548 1548 1548 1548 1549 1555 1547 1543 1544 1544 1543 1545 1544 1544 1545 1545 1547 1548 1550 1544 1544 1544 1546 1548 1552 1544 1546 1545 1546 1548 1542 1531 1509 1492 1483 1478 1474 1472 1470 1471
1544 1544 1544 1546 1547 1547 1548 1548 1548 1549 1569 1545 1543 1543 1542 1544 1544 1543 1543 1543 1543 1543 1547 1545 1542 1543 1544 1542 1543 1544 1542 1544 1545 1549 1551 1547 1548 1508 1498 1483 1476 1473 1472 1472 1471
1542 1543 1543 1544 1544 1546 1547 1548 1549 1560 1565 1543 1541 1541 1542 1541 1541 1541 1541 1542 1542 1543 1544 1543 1541 1540 1539 1540 1541 1542 1543 1548 1554 1553 1552 1547 1547 1516 1499 1487 1480 1472 1470 1470 1469
1539 1540 1542 1543 1544 1545 1546 1548 1561 1565 1544 1544 1542 1541 1542 1541 1540 1540 1541 1543 1545 1547 1549 1543 1541 1539 1539 1541 1543 1544 1548 1550 1546 1545 1540 1548 1549 1509 1488 1485 1483 1478 1472 1468 1469
1538 1539 1540 1542 1543 1545 1547 1551 1562 1548 1547 1539 1539 1541 1543 1541 1541 1541 1543 1545 1542 1544 1552 1552 1545 1539 1539 1539 1541 1546 1548 1553 1553 1548 1543 1549 1534 1501 1482 1480 1477 1476 1474 1472 1468
1536 1537 1539 1540 1542 1544 1548 1561 1555 1548 1540 1540 1540 1542 1543 1541 1542 1542 1543 1544 1540 1541 1547 1552 1546 1540 1540 1540 1542 1547 1550 1548 1551 1560 1558 1534 1517 1495 1479 1474 1473 1471 1469 1466 1465
1536 1537 1538 1539 1541 1543 1547 1553 1546 1541 1539 1539 1542 1542 1545 1544 1544 1544 1543 1539 1539 1541 1541 1543 1550 1541 1541 1541 1543 1543 1546 1548 1557 1549 1546 1532 1527 1504 1485 1478 1473 1472 1469 1467 1464
1535 1536 1537 1538 1540 1543 1551 1550 1542 1537 1538 1539 1540 1542 1544 1543 1543 1545 1541 1539 1538 1540 1540 1543 1549 1544 1542 1542 1539 1549 1548 1553 1554 1555 1545 1541 1520 1492 1482 1476 1478 1474 1471 1466 1462
1534 1536 1535 1536 1541 1543 1546 1541 1538 1536 1536 1537 1537 1539 1542 1541 1543 1546 1544 1539 1537 1538 1541 1545 1551 1551 1539 1538 1537 1538 1541 1544 1548 1546 1552 1547 1505 1476 1475 1477 1477 1473 1468 1463 1461
1533 1532 1533 1535 1542 1543 1539 1537 1535 1535 1535 1536 1535 1537 1539 1540 1543 1542 1539 1536 1537 1538 1540 1541 1548 1553 1541 1540 1538 1537 1538 1538 1544 1547 1537 1526 1490 1472 1473 1475 1475 1472 1466 1461 1456
1531 1532 1532 1533 1532 1534 1536 1535 1534 1533 1533 1533 1534 1536 1538 1539 1539 1539 1538 1536 1536 1536 1536 1537 1544 1540 1539 1533 1531 1536 1534 1536 1533 1537 1510 1508 1484 1473 1472 1475 1474 1472 1465 1459 1455
1527 1526 1528 1532 1531 1531 1532 1533 1534 1533 1532 1532 1534 1534 1536 1540 1539 1540 1538 1536 1536 1536 1537 1538 1541 1539 1534 1528 1529 1524 1526 1522 1525 1508 1512 1480 1488 1472 1468 1475 1472 1470 1463 1459 1455
1523 1525 1527 1528 1528 1531 1533 1533 1533 1532 1532 1532 1533 1533 1535 1537 1535 1535 1535 1535 1534 1534 1534 1536 1535 1533 1530 1524 1520 1519 1515 1509 1507 1500 1496 1485 1485 1467 1471 1471 1469 1463 1459 1456 1453
1520 1522 1524 1528 1530 1533 1532 1528 1529 1530 1530 1530 1531 1533 1535 1533 1532 1532 1531 1531 1528 1529 1533 1536 1534 1535 1511 1518 1520 1516 1500 1492 1489 1489 1484 1483 1465 1470 1470 1469 1466 1460 1458 1455 1452